Location: Newark
(25.4800°N, 85.7200°E)
Time: 22:58:18
(UTC+00:00)

Transit 4A - Pass Details

Date: 26 August 2019
Orbit: 865 x 980 km, 66.8° (Epoch: 19 September)

Event Time Altitude Azimuth Distance (km) Brightness Sun altitude
Rises 20:37:58 0° 343° (NNW) 3,585 11.2 -40.8°
Reaches altitude 10° 20:40:37 10° 348° (NNW) 2,621 10.5 -40.3°
Enters shadow 20:41:18 13° 351° (N) 2,379 10.3 -40.2°
Maximum altitude 20:46:31 51° 64° (ENE) 1,120 - -39.3°
Drops below altitude 10° 20:52:13 10° 140° (SE) 2,538 - -38.3°
Sets 20:54:44 0° 145° (SE) 3,461 - -37.9°
